Regional Weather Roundup
Issued by NWS Upton, NY

Current Version | Previous Version | Text Only | Print | Product List | Glossary On
Versions: 1 2 3 4 5 6 7 8 9 10 11 12 13 14 15 16 17 18 19 20 21 22 23 24 25 26
000
ASUS41 KOKX 230205
RWROKX

REGIONAL WEATHER ROUNDUP
NATIONAL WEATHER SERVICE NEW YORK NY
1000 PM EDT TUE APR 22 2014

NOTE: "FAIR" INDICATES FEW OR NO CLOUDS BELOW 12,000 FEET WITH NO
SIGNIFICANT WEATHER AND/OR OBSTRUCTIONS TO VISIBILITY.

NYZ071-072-176-178-NJZ106-104-230300-
NEW YORK CITY METRO AREA


CITY           SKY/WX    TMP DP  RH WIND       PRES   REMARKS
CENTRAL PARK   MOCLDY    63  51  65 W3        29.55F
LAGUARDIA APRT MOCLDY    64  50  60 SW5       29.52F
KENNEDY INTL   MOCLDY    61  53  75 W5        29.54F
NEWARK/LIBERTY CLOUDY    63  52  67 SW8       29.53F
TETERBORO      MOCLDY    64  51  62 SE3       29.52F
$$

NYZ177-179-078>081-230300-
LONG ISLAND NEW YORK

CITY           SKY/WX    TMP DP  RH WIND       PRES   REMARKS
FARMINGDALE    MOCLDY    53  48  83 CALM      29.54F
ISLIP          CLOUDY    52  47  83 SW3       29.53F
SHIRLEY        CLOUDY    51  48  89 SW5       29.55F
WESTHAMPTON    CLOUDY    51  47  86 SW5       29.55F
MONTAUK POINT    N/A     50  47  89 VRB6      29.56S
$$

NYZ052-065-067-230300-
HUDSON VALLEY

CITY           SKY/WX    TMP DP  RH WIND       PRES   REMARKS
WHITE PLAINS   MOCLDY    59  51  75 W5        29.52F
NEWBURGH       PTCLDY    59  52  77 W8        29.54R
MONTGOMERY     MOCLDY    57  51  80 S3        29.51F
POUGHKEEPSIE   PTCLDY    56  50  80 CALM      29.51R
ALBANY         MOCLDY    56  49  77 W7        29.53R
$$

NJZ001-105-106-008-010-013-015-019>022-104-230300-
NEW JERSEY

CITY           SKY/WX    TMP DP  RH WIND       PRES   REMARKS
NEWARK/LIBERTY CLOUDY    63  52  67 SW8       29.53F
TETERBORO      MOCLDY    64  51  62 SE3       29.52F
CALDWELL       MOCLDY    61  52  72 S3        29.53F
MORRISTOWN     MOCLDY    59  52  77 CALM      29.54F
SOMERVILLE     CLOUDY    60  48  64 CALM      29.53F
LINDEN         CLOUDY    64  53  65 CALM      29.54F
SUSSEX         CLOUDY    59  52  77 SW3       29.53F
ANDOVER          N/A     55  52  89 CALM      29.54F
TRENTON        CLOUDY    60  48  64 SW5       29.54F
MILLVILLE      MOCLDY    52  47  83 CALM      29.61S
ATLANTIC CITY  MOCLDY    58  47  66 NW7       29.59F
WRIGHTSTOWN    MOCLDY    60  47  62 W6        29.54F
TOMS RIVER     CLOUDY    63  52  67 W7        29.56F
BELMAR         MOCLDY    64  48  55 W6        29.55F
$$

PAZ047>061-062-071-230300-
EASTERN PENNSYLVANIA

CITY           SKY/WX    TMP DP  RH WIND       PRES   REMARKS
PHILADELPHIA   MOCLDY    58  48  69 SW9       29.60R
ALLENTOWN      PTCLDY    50  45  83 W6        29.57R
SCRANTON       CLOUDY    57  49  74 SW10      29.55R
$$

CTZ002-004>006-009-010-012-RIZ004-006-007-MAZ004-011-015-230300-
SOUTHERN NEW ENGLAND
 IN CT

CITY           SKY/WX    TMP DP  RH WIND       PRES   REMARKS
BRADLEY INTL   CLOUDY    56  50  80 S9        29.50F
HARTFORD       CLOUDY    55  49  80 S6        29.52S
DANBURY        PTCLDY    54  50  86 W5        29.53S
WTRBRY/OXFORD  MOCLDY    52  46  82 CALM      29.55S
BRIDGEPORT     CLOUDY    52  48  86 S6        29.52F
MERIDEN        CLOUDY    53  48  83 S5        29.53S
NEW HAVEN      CLOUDY    52  47  83 CALM      29.53F
CHESTER        FAIR      52  48  87 SW3       29.53F
GROTON         CLOUDY    49  47  93 S3        29.53S
WILLIMANTIC    LGT RAIN  54  50  86 S3        29.53S

 IN RI

CITY           SKY/WX    TMP DP  RH WIND       PRES   REMARKS
PROVIDENCE     LGT RAIN  54  49  83 SW5       29.54F
BLOCK ISLAND   CLOUDY    48  46  93 SW14      29.55S
WESTERLY       CLOUDY    50  48  93 SW7       29.55S

 IN MA

CITY           SKY/WX    TMP DP  RH WIND       PRES   REMARKS
BOSTON         LGT RAIN  55  49  80 S12       29.50S
WORCESTER      CLOUDY    53  49  86 SW8       29.51S
WESTFIELD      CLOUDY    56  53  90 S5        29.50S
PROVINCETOWN   CLOUDY    48  46  93 MISG      29.54S
NANTUCKET      CLOUDY    49  45  86 S7        29.57F
$$

ANZ330-335-338-340-345-350-353-355-230300-
COASTAL MARINE OBSERVATIONS


STATION/POSITION TIME  SKY/WX   TEMP    WIND        PRES    VSBY  WAVE
                                AIR SEA DIR/SP/G                  HT/PER
                 (UTC)          (F)     (DEG/KT/KT) (MB)    (MI)  (FT/S)
NY HARB ENTRANCE 0200            53 48  VRB  6/  6  1000.6
4S FIRE IS       0100               46                N/A           4/ 8
23SW MTP         0200            46 44  230/  8/  8 1000.6          3/ 8
HUDSON CANYON    0100            49 46  210/ 12/ 16 1001.1          5/ 9
EXECUTION ROCKS  0200            54 46  230/  8/ 10   N/A
WESTERN LI SOUND 0200            53     200/  8/  8   N/A           0
CENTRAL LI SOUND 0100            49 43   CALM  /  2   N/A           1
EASTERN LI SOUND NOT AVBL
ROBBINS REEF     0200            63     260/ 12/ 13   N/A
$$


>>>>>>>>>>>>>>>>>>>>>>>>>>>> KEY <<<<<<<<<<<<<<<<<<<<<<<<<<<
>                                                          <
>     SKY/WX - SKY CONDITION/PRESENT WEATHER               <
>     TMP    - TEMPERATURE IN FAHRENHEIT                   <
>     DP     - DEWPOINT IN FAHRENHEIT                      <
>     RH     - RELATIVE HUMIDITY IN PERCENT                <
>     WIND   - DIRECTION AND SPEED IN MPH                  <
>     PRES   - MEAN SEA LEVEL PRESSURE IN INCHES OF HG     <
>     WCI    - WIND CHILL INDEX                            <
>     VSB    - VISIBILITY IN MILES                         <
>     HX     - HEAT INDEX                                  <
>     TC     - TEMPERATURE IN CELSIUS                      <
>     VRB    - VARIABLE WIND DIRECTION                     <
>                                                          <
>>>>>>>>>>>>>>>>>>>>>>>>>>>> KEY <<<<<<<<<<<<<<<<<<<<<<<<<<<





USA.gov is the U.S. government's official web portal to all federal, state and local government web resources and services.